Longview, TX

4:15 PM CDT on August 20, 2017 (GMT -0500)
Gregg County

Weather History for KGGG - August, 2013

Change the Weather History Date:

Thursday, August 1, 2013

  Actual Average Record
Temperature  
Mean Temperature 90 °F 84 °F  
Max Temperature 103 °F 94 °F 108 °F (2011)
Min Temperature 77 °F 73 °F 59 °F (1971)
Degree Days  
Heating Degree Days 0 0  
Month to date heating degree days 0 0  
Since 1 June heating degree days 0 0  
Since 1 July heating degree days 0 0  
Cooling Degree Days 25 19  
Month to date cooling degree days 25 19  
Year to date cooling degree days 1481 1409  
Since 1 June cooling degree days 1093 1030  
Growing Degree Days 40 (Base 50)    
Moisture  
Dew Point 69 °F    
Average Humidity 55    
Maximum Humidity 79    
Minimum Humidity 31    
Precipitation  
Precipitation T in 0.08 in 1.67 in (2009)
Month to date precipitation T 0.08  
Year to date precipitation 19.27 27.71  
Snow  
Snow 0.00 in - - ()
Month to date snowfall 0.0  
Since 1 June snowfall 0.0  
Since 1 July snowfall 0.0  
Snow Depth 0.00 in    
Sea Level Pressure  
Sea Level Pressure 29.95 in    
Wind  
Wind Speed 4 mph (SSW)    
Max Wind Speed 28 mph    
Max Gust Speed 33 mph    
Visibility 10 miles    
Events Rain , Thunderstorm    
T = Trace of Precipitation, MM = Missing Value Source: NWS Daily Summary

Daily Weather History Graph

Daily Weather History Graph

Search for Another Location

Airport or City:

Trip Planner

Search our weather history database for the weather conditions in past years. The results will help you decide how hot, cold, wet, or windy it might be!

Date:

Astronomy

Aug. 01, 2013 Rise Set
Actual Time 6:33 AM CDT 8:16 PM CDT
Civil Twilight 6:06 AM CDT 8:42 PM CDT
Nautical Twilight 5:34 AM CDT 9:15 PM CDT
Astronomical Twilight 5:00 AM CDT 9:48 PM CDT
Moon 2:12 AM CDT (8/1) 4:23 PM CDT (8/1)
Length of Visible Light 14h 36m
Length of Day
13h 42m
Waning Crescent, 23% of the Moon is Illuminated
Aug 1
Waning Crescent
Aug 6
New
Aug 14
First Quarter
Aug 20
Full
Aug 28
Last Quarter

Hourly Weather History & Observations

Time (CDT) Temp. Heat Index Dew Point Humidity Pressure Visibility Wind Dir Wind Speed Gust Speed Precip Events Conditions
12:53 AM 86.0 °F 89.4 °F 68.0 °F 55% 29.95 in 10.0 mi West 3.5 mph - N/A   Mostly Cloudy
1:53 AM 82.0 °F 85.5 °F 69.1 °F 65% 29.94 in 10.0 mi SSW 4.6 mph - N/A   Clear
2:53 AM 82.0 °F 85.5 °F 69.1 °F 65% 29.94 in 10.0 mi Calm Calm - N/A   Clear
3:53 AM 81.0 °F 84.9 °F 71.1 °F 72% 29.96 in 10.0 mi Calm Calm - N/A   Partly Cloudy
4:53 AM 80.1 °F 83.6 °F 71.1 °F 74% 29.96 in 10.0 mi Calm Calm - N/A   Partly Cloudy
5:53 AM 79.0 °F - 71.1 °F 77% 29.97 in 10.0 mi Calm Calm - N/A   Mostly Cloudy
6:53 AM 78.1 °F - 71.1 °F 79% 29.99 in 10.0 mi Calm Calm - N/A   Partly Cloudy
7:53 AM 81.0 °F 85.8 °F 73.0 °F 77% 29.99 in 10.0 mi South 3.5 mph - N/A   Clear
8:53 AM 84.9 °F 90.1 °F 71.1 °F 63% 30.00 in 10.0 mi SW 4.6 mph - N/A   Clear
9:53 AM 88.0 °F 92.9 °F 70.0 °F 55% 29.99 in 10.0 mi West 4.6 mph - N/A   Clear
10:53 AM 91.0 °F 96.6 °F 70.0 °F 50% 29.99 in 10.0 mi SSW 4.6 mph - N/A   Clear
11:53 AM 95.0 °F 99.5 °F 68.0 °F 41% 29.98 in 10.0 mi Variable 5.8 mph - N/A   Clear
12:53 PM 98.1 °F 103.0 °F 68.0 °F 37% 29.96 in 10.0 mi SW 5.8 mph - N/A   Clear
1:53 PM 99.0 °F 103.5 °F 66.9 °F 35% 29.94 in 10.0 mi Calm Calm - N/A   Scattered Clouds
2:53 PM 100.9 °F 106.0 °F 66.9 °F 33% 29.93 in 10.0 mi Variable 6.9 mph - N/A   Clear
3:53 PM 102.0 °F 106.6 °F 66.0 °F 31% 29.90 in 10.0 mi WNW 6.9 mph - N/A   Scattered Clouds
4:33 PM 95.0 °F 101.3 °F 69.8 °F 44% 29.92 in 10.0 mi ENE 9.2 mph - 0.00 in Rain , Thunderstorm Light Rain
4:53 PM 95.0 °F 100.7 °F 69.1 °F 43% 29.88 in 10.0 mi East 8.1 mph - 0.00 in Thunderstorm Mostly Cloudy
5:53 PM 82.9 °F 87.0 °F 70.0 °F 65% 29.94 in 10.0 mi South 18.4 mph - N/A Thunderstorm Clear
6:25 PM 84.2 °F 87.3 °F 68.0 °F 58% 29.94 in 10.0 mi SW 6.9 mph - N/A   Clear
6:53 PM 84.0 °F 87.0 °F 68.0 °F 58% 29.92 in 10.0 mi WNW 8.1 mph - N/A   Clear
7:53 PM 82.9 °F 85.4 °F 66.9 °F 58% 29.93 in 10.0 mi Calm Calm - N/A   Clear
8:53 PM 81.0 °F 83.8 °F 68.0 °F 65% 29.92 in 10.0 mi Calm Calm - N/A   Clear
9:53 PM 80.1 °F 82.9 °F 69.1 °F 69% 29.94 in 10.0 mi Calm Calm - N/A   Clear
10:53 PM 79.0 °F - 70.0 °F 74% 29.95 in 10.0 mi SSE 4.6 mph - N/A   Clear
11:53 PM 78.1 °F - 71.1 °F 79% 29.94 in 10.0 mi ESE 3.5 mph - N/A   Clear